Time,TemperatureF,DewpointF,PressureIn,WindDirection,WindDirectionDegrees,WindSpeedMPH,WindSpeedGustMPH,Humidity,HourlyPrecipIn,Conditions,Clouds,dailyrainin,SoftwareType,DateUTC
2013-04-25 00:01:00,50.3,48.4,29.90,SSW,204,4.0,4.0,93,0.00,,,0.00,K1FSY wxget,2013-04-25 04:01:00,
2013-04-25 00:02:00,50.3,48.4,29.90,SW,219,5.0,5.0,93,0.00,,,0.00,K1FSY wxget,2013-04-25 04:02:00,
2013-04-25 00:07:00,50.4,48.5,29.90,WSW,246,3.0,3.0,93,0.00,,,0.00,K1FSY wxget,2013-04-25 04:07:00,
2013-04-25 00:12:00,50.5,48.6,29.90,South,177,5.0,5.0,93,0.00,,,0.00,K1FSY wxget,2013-04-25 04:12:00,
2013-04-25 00:17:00,50.6,48.7,29.90,SSW,195,7.0,7.0,93,0.00,,,0.00,K1FSY wxget,2013-04-25 04:17:00,
2013-04-25 00:22:00,50.6,48.7,29.90,SSW,203,6.0,6.0,93,0.00,,,0.00,K1FSY wxget,2013-04-25 04:22:00,
2013-04-25 00:27:00,50.6,48.7,29.90,SSE,165,6.0,6.0,93,0.00,,,0.00,K1FSY wxget,2013-04-25 04:27:00,
2013-04-25 00:32:00,50.5,48.8,29.90,South,169,4.0,4.0,94,0.00,,,0.00,K1FSY wxget,2013-04-25 04:32:00,
2013-04-25 00:37:00,50.6,48.9,29.90,SSW,198,2.0,3.0,94,0.00,,,0.00,K1FSY wxget,2013-04-25 04:37:00,
2013-04-25 00:42:00,50.6,48.9,29.90,SSW,212,4.0,4.0,94,0.00,,,0.00,K1FSY wxget,2013-04-25 04:42:00,
2013-04-25 00:47:00,50.6,48.9,29.91,SSW,210,3.0,3.0,94,0.00,,,0.00,K1FSY wxget,2013-04-25 04:47:00,
2013-04-25 00:52:00,50.7,49.0,29.90,South,190,3.0,3.0,94,0.00,,,0.00,K1FSY wxget,2013-04-25 04:52:00,
2013-04-25 00:57:00,50.7,49.0,29.91,SSE,166,3.0,3.0,94,0.00,,,0.00,K1FSY wxget,2013-04-25 04:57:00,
2013-04-25 01:02:00,50.6,48.9,29.91,SSW,212,3.0,3.0,94,0.00,,,0.00,K1FSY wxget,2013-04-25 05:02:00,
2013-04-25 01:07:00,50.6,48.9,29.91,SW,218,5.0,5.0,94,0.00,,,0.00,K1FSY wxget,2013-04-25 05:07:00,
2013-04-25 01:12:00,50.6,48.9,29.91,SW,214,4.0,4.0,94,0.00,,,0.00,K1FSY wxget,2013-04-25 05:12:00,
2013-04-25 01:17:00,50.6,48.9,29.90,SSW,211,1.0,3.0,94,0.00,,,0.00,K1FSY wxget,2013-04-25 05:17:00,
2013-04-25 01:22:00,50.6,48.9,29.90,WSW,245,0.0,3.0,94,0.00,,,0.00,K1FSY wxget,2013-04-25 05:22:00,
2013-04-25 01:27:00,50.7,49.0,29.91,SW,215,0.0,3.0,94,0.00,,,0.00,K1FSY wxget,2013-04-25 05:27:00,
2013-04-25 01:32:00,50.8,49.1,29.91,SW,224,3.0,3.0,94,0.00,,,0.00,K1FSY wxget,2013-04-25 05:32:00,
2013-04-25 01:37:00,50.8,49.1,29.91,SSW,208,4.0,4.0,94,0.00,,,0.00,K1FSY wxget,2013-04-25 05:37:00,
2013-04-25 01:42:00,50.9,49.2,29.93,West,264,2.0,3.0,94,0.00,,,0.00,K1FSY wxget,2013-04-25 05:42:00,
2013-04-25 01:47:00,51.0,49.3,29.93,WSW,257,1.0,3.0,94,0.00,,,0.00,K1FSY wxget,2013-04-25 05:47:00,
2013-04-25 01:52:00,51.2,49.8,29.92,West,262,1.0,3.0,95,0.00,,,0.00,K1FSY wxget,2013-04-25 05:52:00,
2013-04-25 01:57:00,51.3,49.6,29.92,WSW,250,1.0,3.0,94,0.00,,,0.00,K1FSY wxget,2013-04-25 05:57:00,
2013-04-25 02:02:00,51.4,49.7,29.93,SW,222,1.0,3.0,94,0.00,,,0.00,K1FSY wxget,2013-04-25 06:02:00,
2013-04-25 02:07:00,51.5,49.8,29.92,SSW,205,2.0,3.0,94,0.00,,,0.00,K1FSY wxget,2013-04-25 06:07:00,
2013-04-25 02:12:00,51.6,49.9,29.92,South,191,0.0,3.0,94,0.00,,,0.00,K1FSY wxget,2013-04-25 06:12:00,
2013-04-25 02:18:00,51.7,50.0,29.92,WSW,256,0.0,3.0,94,0.00,,,0.00,K1FSY wxget,2013-04-25 06:18:00,
2013-04-25 02:23:00,51.7,50.3,29.92,SSW,204,0.0,3.0,95,0.00,,,0.00,K1FSY wxget,2013-04-25 06:23:00,
2013-04-25 02:28:00,51.7,50.3,29.93,SSW,200,1.0,3.0,95,0.00,,,0.00,K1FSY wxget,2013-04-25 06:28:00,
2013-04-25 02:33:00,51.7,50.3,29.93,SW,228,0.0,3.0,95,0.00,,,0.00,K1FSY wxget,2013-04-25 06:33:00,
2013-04-25 02:38:00,51.7,50.3,29.93,SSE,160,1.0,3.0,95,0.00,,,0.00,K1FSY wxget,2013-04-25 06:38:00,
2013-04-25 02:43:00,51.7,50.3,29.92,SE,143,0.0,3.0,95,0.00,,,0.00,K1FSY wxget,2013-04-25 06:43:00,
2013-04-25 02:48:00,51.8,50.4,29.92,SW,217,0.0,3.0,95,0.00,,,0.00,K1FSY wxget,2013-04-25 06:48:00,
2013-04-25 02:53:00,51.8,50.4,29.93,SSW,210,0.0,3.0,95,0.00,,,0.00,K1FSY wxget,2013-04-25 06:53:00,
2013-04-25 02:58:00,51.8,50.4,29.93,SE,142,1.0,3.0,95,0.00,,,0.00,K1FSY wxget,2013-04-25 06:58:00,
2013-04-25 03:03:00,51.8,50.4,29.93,SSE,164,0.0,3.0,95,0.00,,,0.00,K1FSY wxget,2013-04-25 07:03:00,
2013-04-25 03:08:00,51.9,50.5,29.93,SSE,165,0.0,3.0,95,0.00,,,0.00,K1FSY wxget,2013-04-25 07:08:00,
2013-04-25 03:13:00,51.9,50.5,29.93,SSE,162,0.0,3.0,95,0.00,,,0.00,K1FSY wxget,2013-04-25 07:13:00,
2013-04-25 03:18:00,51.9,50.5,29.94,NW,325,1.0,3.0,95,0.00,,,0.00,K1FSY wxget,2013-04-25 07:18:00,
2013-04-25 03:23:00,51.9,50.5,29.93,ESE,113,0.0,3.0,95,0.00,,,0.00,K1FSY wxget,2013-04-25 07:23:00,
2013-04-25 03:28:00,52.0,50.6,29.93,ESE,110,1.0,3.0,95,0.00,,,0.00,K1FSY wxget,2013-04-25 07:28:00,
2013-04-25 03:33:00,52.0,50.6,29.93,NW,321,2.0,3.0,95,0.00,,,0.00,K1FSY wxget,2013-04-25 07:33:00,
2013-04-25 03:38:00,52.0,50.6,29.94,WSW,257,0.0,3.0,95,0.00,,,0.00,K1FSY wxget,2013-04-25 07:38:00,
2013-04-25 03:43:00,52.0,50.6,29.95,West,268,1.0,3.0,95,0.00,,,0.00,K1FSY wxget,2013-04-25 07:43:00,
2013-04-25 03:48:00,52.1,50.7,29.95,West,274,0.0,3.0,95,0.00,,,0.00,K1FSY wxget,2013-04-25 07:48:00,
2013-04-25 03:53:00,52.1,50.7,29.95,West,281,1.0,3.0,95,0.00,,,0.00,K1FSY wxget,2013-04-25 07:53:00,
2013-04-25 03:58:00,52.2,50.5,29.95,West,259,1.0,3.0,94,0.00,,,0.00,K1FSY wxget,2013-04-25 07:58:00,
2013-04-25 04:03:00,52.3,50.0,29.95,WNW,295,4.0,4.0,92,0.00,,,0.00,K1FSY wxget,2013-04-25 08:03:00,
2013-04-25 04:08:00,52.2,49.4,29.96,WNW,298,4.0,4.0,90,0.00,,,0.00,K1FSY wxget,2013-04-25 08:08:00,
2013-04-25 04:13:00,52.5,48.4,29.96,NNW,332,7.0,7.0,86,0.00,,,0.00,K1FSY wxget,2013-04-25 08:13:00,
2013-04-25 04:18:00,52.6,47.6,29.97,NW,314,5.0,5.0,83,0.00,,,0.00,K1FSY wxget,2013-04-25 08:18:00,
2013-04-25 04:23:00,52.7,47.0,29.98,West,276,7.0,7.0,81,0.00,,,0.00,K1FSY wxget,2013-04-25 08:23:00,
2013-04-25 04:28:00,52.6,45.6,29.99,NNW,342,13.0,13.0,77,0.00,,,0.00,K1FSY wxget,2013-04-25 08:28:00,
2013-04-25 04:33:00,52.2,44.5,29.99,NW,323,12.0,12.0,75,0.00,,,0.00,K1FSY wxget,2013-04-25 08:33:00,
2013-04-25 04:38:00,51.8,44.1,30.00,NW,325,7.0,7.0,75,0.00,,,0.00,K1FSY wxget,2013-04-25 08:38:00,
2013-04-25 04:43:00,51.5,44.2,30.00,NNW,329,2.0,3.0,76,0.00,,,0.00,K1FSY wxget,2013-04-25 08:43:00,
2013-04-25 04:48:00,51.1,43.8,30.00,NW,318,10.0,10.0,76,0.00,,,0.00,K1FSY wxget,2013-04-25 08:48:00,
2013-04-25 04:54:00,50.6,43.7,30.02,NW,304,3.0,3.0,77,0.00,,,0.00,K1FSY wxget,2013-04-25 08:54:00,
2013-04-25 04:59:00,50.1,41.4,30.02,NW,304,9.0,9.0,72,0.00,,,0.00,K1FSY wxget,2013-04-25 08:59:00,
2013-04-25 05:04:00,49.6,40.6,30.02,NW,311,8.0,8.0,71,0.00,,,0.00,K1FSY wxget,2013-04-25 09:04:00,
2013-04-25 05:09:00,49.1,39.0,30.03,North,352,15.0,15.0,68,0.00,,,0.00,K1FSY wxget,2013-04-25 09:09:00,
2013-04-25 05:14:00,48.6,37.8,30.03,NNW,338,9.0,9.0,66,0.00,,,0.00,K1FSY wxget,2013-04-25 09:14:00,
2013-04-25 05:19:00,48.2,37.4,30.04,NNW,332,5.0,5.0,66,0.00,,,0.00,K1FSY wxget,2013-04-25 09:19:00,
2013-04-25 05:24:00,47.8,37.0,30.04,NNW,338,8.0,8.0,66,0.00,,,0.00,K1FSY wxget,2013-04-25 09:24:00,
2013-04-25 05:29:00,47.6,37.2,30.06,NNW,334,7.0,7.0,67,0.00,,,0.00,K1FSY wxget,2013-04-25 09:29:00,
2013-04-25 05:34:00,47.2,37.2,30.06,NW,305,5.0,5.0,68,0.00,,,0.00,K1FSY wxget,2013-04-25 09:34:00,
2013-04-25 05:39:00,47.0,37.0,30.07,NNW,330,4.0,4.0,68,0.00,,,0.00,K1FSY wxget,2013-04-25 09:39:00,
2013-04-25 05:44:00,46.9,36.5,30.07,NNW,342,9.0,9.0,67,0.00,,,0.00,K1FSY wxget,2013-04-25 09:44:00,
2013-04-25 05:49:00,46.9,35.8,30.07,North,349,6.0,6.0,65,0.00,,,0.00,K1FSY wxget,2013-04-25 09:49:00,
2013-04-25 05:54:00,46.8,35.3,30.07,NNW,330,8.0,8.0,64,0.00,,,0.00,K1FSY wxget,2013-04-25 09:54:00,
2013-04-25 05:59:00,46.7,35.2,30.08,WNW,296,7.0,7.0,64,0.00,,,0.00,K1FSY wxget,2013-04-25 09:59:00,
2013-04-25 06:04:00,46.6,35.5,30.08,NNW,337,4.0,4.0,65,0.00,,,0.00,K1FSY wxget,2013-04-25 10:04:00,
2013-04-25 06:09:00,46.5,35.4,30.08,NW,312,6.0,6.0,65,0.00,,,0.00,K1FSY wxget,2013-04-25 10:09:00,
2013-04-25 06:14:00,46.4,34.9,30.08,NW,319,7.0,7.0,64,0.00,,,0.00,K1FSY wxget,2013-04-25 10:14:00,
2013-04-25 06:19:00,46.3,34.8,30.09,NE,49,4.0,4.0,64,0.00,,,0.00,K1FSY wxget,2013-04-25 10:19:00,
2013-04-25 06:24:00,46.2,34.7,30.09,NNW,328,9.0,9.0,64,0.00,,,0.00,K1FSY wxget,2013-04-25 10:24:00,
2013-04-25 06:29:00,46.1,34.6,30.10,NNW,340,4.0,4.0,64,0.00,,,0.00,K1FSY wxget,2013-04-25 10:29:00,
2013-04-25 06:34:00,46.0,34.9,30.10,NW,322,20.0,20.0,65,0.00,,,0.00,K1FSY wxget,2013-04-25 10:34:00,
2013-04-25 06:39:00,45.9,34.4,30.11,NNW,347,6.0,6.0,64,0.00,,,0.00,K1FSY wxget,2013-04-25 10:39:00,
2013-04-25 06:44:00,45.9,35.2,30.11,NNW,329,3.0,3.0,66,0.00,,,0.00,K1FSY wxget,2013-04-25 10:44:00,
2013-04-25 06:49:00,45.8,34.7,30.11,NW,322,9.0,9.0,65,0.00,,,0.00,K1FSY wxget,2013-04-25 10:49:00,
2013-04-25 06:54:00,45.7,34.6,30.12,NW,324,11.0,11.0,65,0.00,,,0.00,K1FSY wxget,2013-04-25 10:54:00,
2013-04-25 07:00:00,45.6,34.5,30.12,NW,322,10.0,10.0,65,0.00,,,0.00,K1FSY wxget,2013-04-25 11:00:00,
2013-04-25 07:05:00,45.5,34.4,30.12,NNW,333,11.0,11.0,65,0.00,,,0.00,K1FSY wxget,2013-04-25 11:05:00,
2013-04-25 07:10:00,45.3,33.8,30.12,NNW,331,8.0,8.0,64,0.00,,,0.00,K1FSY wxget,2013-04-25 11:10:00,
2013-04-25 07:15:00,45.2,34.1,30.13,NNW,328,6.0,6.0,65,0.00,,,0.00,K1FSY wxget,2013-04-25 11:15:00,
2013-04-25 07:20:00,45.2,34.1,30.13,North,6,4.0,4.0,65,0.00,,,0.00,K1FSY wxget,2013-04-25 11:20:00,
2013-04-25 07:25:00,45.3,34.2,30.13,WNW,284,8.0,8.0,65,0.00,,,0.00,K1FSY wxget,2013-04-25 11:25:00,
2013-04-25 07:30:00,45.3,34.2,30.13,NW,326,6.0,6.0,65,0.00,,,0.00,K1FSY wxget,2013-04-25 11:30:00,
2013-04-25 07:35:00,45.4,34.3,30.14,NNW,347,10.0,10.0,65,0.00,,,0.00,K1FSY wxget,2013-04-25 11:35:00,
2013-04-25 07:40:00,45.5,34.0,30.14,NNW,342,7.0,7.0,64,0.00,,,0.00,K1FSY wxget,2013-04-25 11:40:00,
2013-04-25 07:45:00,45.7,34.2,30.15,WNW,285,7.0,7.0,64,0.00,,,0.00,K1FSY wxget,2013-04-25 11:45:00,
2013-04-25 07:50:00,45.8,33.9,30.15,NNW,331,8.0,8.0,63,0.00,,,0.00,K1FSY wxget,2013-04-25 11:50:00,
2013-04-25 07:55:00,46.0,34.1,30.15,North,354,6.0,6.0,63,0.00,,,0.00,K1FSY wxget,2013-04-25 11:55:00,
2013-04-25 08:00:00,46.0,34.1,30.15,NNW,343,4.0,4.0,63,0.00,,,0.00,K1FSY wxget,2013-04-25 12:00:00,
2013-04-25 08:05:00,46.3,34.4,30.15,NW,321,5.0,5.0,63,0.00,,,0.00,K1FSY wxget,2013-04-25 12:05:00,
2013-04-25 08:10:00,46.8,34.5,30.16,NW,322,4.0,4.0,62,0.00,,,0.00,K1FSY wxget,2013-04-25 12:10:00,
2013-04-25 08:15:00,46.9,34.2,30.16,NNW,330,4.0,4.0,61,0.00,,,0.00,K1FSY wxget,2013-04-25 12:15:00,
2013-04-25 08:21:00,47.1,34.4,30.17,NNW,342,7.0,7.0,61,0.00,,,0.00,K1FSY wxget,2013-04-25 12:21:00,
2013-04-25 08:26:00,47.2,33.6,30.17,NNW,343,9.0,9.0,59,0.00,,,0.00,K1FSY wxget,2013-04-25 12:26:00,
2013-04-25 08:31:00,47.1,33.5,30.16,NNW,332,9.0,9.0,59,0.00,,,0.00,K1FSY wxget,2013-04-25 12:31:00,
2013-04-25 08:36:00,47.2,34.0,30.17,WNW,300,7.0,7.0,60,0.00,,,0.00,K1FSY wxget,2013-04-25 12:36:00,
2013-04-25 08:41:00,47.3,33.3,30.17,NW,304,9.0,9.0,58,0.00,,,0.00,K1FSY wxget,2013-04-25 12:41:00,
2013-04-25 08:46:00,47.4,33.8,30.17,NNW,347,4.0,4.0,59,0.00,,,0.00,K1FSY wxget,2013-04-25 12:46:00,
2013-04-25 08:51:00,47.6,33.6,30.16,NNW,334,4.0,4.0,58,0.00,,,0.00,K1FSY wxget,2013-04-25 12:51:00,
2013-04-25 08:56:00,47.6,33.6,30.16,NW,314,4.0,4.0,58,0.00,,,0.00,K1FSY wxget,2013-04-25 12:56:00,
2013-04-25 09:01:00,48.1,34.0,30.16,WNW,297,7.0,7.0,58,0.00,,,0.00,K1FSY wxget,2013-04-25 13:01:00,
2013-04-25 09:06:00,48.3,34.2,30.17,NNW,342,5.0,5.0,58,0.00,,,0.00,K1FSY wxget,2013-04-25 13:06:00,
2013-04-25 09:11:00,48.3,33.8,30.17,NNW,334,3.0,3.0,57,0.00,,,0.00,K1FSY wxget,2013-04-25 13:11:00,
2013-04-25 09:16:00,48.6,34.1,30.17,NW,313,3.0,3.0,57,0.00,,,0.00,K1FSY wxget,2013-04-25 13:16:00,
2013-04-25 09:21:00,48.7,33.7,30.17,NNW,340,9.0,9.0,56,0.00,,,0.00,K1FSY wxget,2013-04-25 13:21:00,
2013-04-25 09:26:00,48.6,34.1,30.17,NW,315,6.0,6.0,57,0.00,,,0.00,K1FSY wxget,2013-04-25 13:26:00,
2013-04-25 09:31:00,48.7,33.7,30.17,NE,39,8.0,8.0,56,0.00,,,0.00,K1FSY wxget,2013-04-25 13:31:00,
2013-04-25 09:36:00,49.1,34.5,30.17,NNW,342,9.0,9.0,57,0.00,,,0.00,K1FSY wxget,2013-04-25 13:36:00,
2013-04-25 09:41:00,49.6,34.6,30.17,NNW,347,8.0,8.0,56,0.00,,,0.00,K1FSY wxget,2013-04-25 13:41:00,
2013-04-25 09:46:00,49.7,34.2,30.17,NNW,343,12.0,12.0,55,0.00,,,0.00,K1FSY wxget,2013-04-25 13:46:00,
2013-04-25 09:51:00,49.5,33.6,30.18,NNW,329,4.0,4.0,54,0.00,,,0.00,K1FSY wxget,2013-04-25 13:51:00,
2013-04-25 09:57:00,49.8,33.8,30.18,NNW,333,6.0,6.0,54,0.00,,,0.00,K1FSY wxget,2013-04-25 13:57:00,
2013-04-25 10:02:00,50.3,34.3,30.18,NNW,338,14.0,14.0,54,0.00,,,0.00,K1FSY wxget,2013-04-25 14:02:00,
2013-04-25 10:07:00,50.4,34.4,30.18,North,1,10.0,10.0,54,0.00,,,0.00,K1FSY wxget,2013-04-25 14:07:00,
2013-04-25 10:12:00,50.4,33.4,30.18,NW,311,10.0,10.0,52,0.00,,,0.00,K1FSY wxget,2013-04-25 14:12:00,
2013-04-25 10:17:00,50.4,33.9,30.19,NNW,332,11.0,11.0,53,0.00,,,0.00,K1FSY wxget,2013-04-25 14:17:00,
2013-04-25 10:22:00,50.9,33.4,30.19,NNW,334,5.0,5.0,51,0.00,,,0.00,K1FSY wxget,2013-04-25 14:22:00,
2013-04-25 10:27:00,50.8,33.3,30.19,West,281,5.0,5.0,51,0.00,,,0.00,K1FSY wxget,2013-04-25 14:27:00,
2013-04-25 10:32:00,50.8,33.8,30.19,NW,309,4.0,4.0,52,0.00,,,0.00,K1FSY wxget,2013-04-25 14:32:00,
2013-04-25 10:37:00,51.4,33.9,30.19,NNW,340,16.0,16.0,51,0.00,,,0.00,K1FSY wxget,2013-04-25 14:37:00,
2013-04-25 10:42:00,51.2,31.1,30.19,NW,314,13.0,13.0,46,0.00,,,0.00,K1FSY wxget,2013-04-25 14:42:00,
2013-04-25 10:47:00,50.8,32.3,30.19,WNW,293,5.0,5.0,49,0.00,,,0.00,K1FSY wxget,2013-04-25 14:47:00,
2013-04-25 10:52:00,51.3,32.3,30.19,WNW,297,11.0,11.0,48,0.00,,,0.00,K1FSY wxget,2013-04-25 14:52:00,
2013-04-25 10:57:00,51.7,32.1,30.19,NW,311,11.0,11.0,47,0.00,,,0.00,K1FSY wxget,2013-04-25 14:57:00,
2013-04-25 11:02:00,51.9,32.3,30.19,North,349,3.0,3.0,47,0.00,,,0.00,K1FSY wxget,2013-04-25 15:02:00,
2013-04-25 11:07:00,52.4,32.2,30.19,NNW,347,6.0,6.0,46,0.00,,,0.00,K1FSY wxget,2013-04-25 15:07:00,
2013-04-25 11:12:00,52.5,32.3,30.19,NW,322,8.0,8.0,46,0.00,,,0.00,K1FSY wxget,2013-04-25 15:12:00,
2013-04-25 11:17:00,52.8,31.5,30.20,ENE,65,6.0,6.0,44,0.00,,,0.00,K1FSY wxget,2013-04-25 15:17:00,
2013-04-25 11:22:00,53.2,32.4,30.20,WNW,295,2.0,3.0,45,0.00,,,0.00,K1FSY wxget,2013-04-25 15:22:00,
2013-04-25 11:27:00,53.6,32.2,30.20,WNW,300,9.0,9.0,44,0.00,,,0.00,K1FSY wxget,2013-04-25 15:27:00,
2013-04-25 11:32:00,53.4,30.9,30.20,NNW,338,12.0,12.0,42,0.00,,,0.00,K1FSY wxget,2013-04-25 15:32:00,
2013-04-25 11:38:00,53.3,31.4,30.20,NW,307,8.0,8.0,43,0.00,,,0.00,K1FSY wxget,2013-04-25 15:38:00,
2013-04-25 11:43:00,54.0,30.8,30.20,NNW,346,5.0,5.0,41,0.00,,,0.00,K1FSY wxget,2013-04-25 15:43:00,
2013-04-25 11:48:00,54.2,31.0,30.20,NW,322,7.0,7.0,41,0.00,,,0.00,K1FSY wxget,2013-04-25 15:48:00,
2013-04-25 11:53:00,54.3,28.6,30.20,NNE,23,12.0,12.0,37,0.00,,,0.00,K1FSY wxget,2013-04-25 15:53:00,
2013-04-25 11:58:00,54.7,29.6,30.20,North,356,6.0,6.0,38,0.00,,,0.00,K1FSY wxget,2013-04-25 15:58:00,
2013-04-25 12:03:00,54.7,28.9,30.20,NW,305,10.0,10.0,37,0.00,,,0.00,K1FSY wxget,2013-04-25 16:03:00,
2013-04-25 12:08:00,54.4,28.7,30.20,NNW,335,12.0,12.0,37,0.00,,,0.00,K1FSY wxget,2013-04-25 16:08:00,
2013-04-25 12:13:00,54.8,30.3,30.20,NNE,12,4.0,4.0,39,0.00,,,0.00,K1FSY wxget,2013-04-25 16:13:00,
2013-04-25 12:18:00,55.0,28.5,30.20,WNW,297,7.0,7.0,36,0.00,,,0.00,K1FSY wxget,2013-04-25 16:18:00,
2013-04-25 12:23:00,55.3,28.1,30.20,NW,319,6.0,6.0,35,0.00,,,0.00,K1FSY wxget,2013-04-25 16:23:00,
2013-04-25 12:28:00,55.4,28.2,30.20,NW,304,3.0,3.0,35,0.00,,,0.00,K1FSY wxget,2013-04-25 16:28:00,
2013-04-25 12:33:00,55.0,26.4,30.20,NNW,334,8.0,8.0,33,0.00,,,0.00,K1FSY wxget,2013-04-25 16:33:00,
2013-04-25 12:38:00,54.7,26.2,30.21,NNW,342,11.0,11.0,33,0.00,,,0.00,K1FSY wxget,2013-04-25 16:38:00,
2013-04-25 12:43:00,54.6,26.1,30.20,WNW,300,6.0,6.0,33,0.00,,,0.00,K1FSY wxget,2013-04-25 16:43:00,
2013-04-25 12:48:00,54.7,27.6,30.21,NNW,331,7.0,7.0,35,0.00,,,0.00,K1FSY wxget,2013-04-25 16:48:00,
2013-04-25 12:53:00,54.9,28.5,30.21,NNW,331,9.0,9.0,36,0.00,,,0.00,K1FSY wxget,2013-04-25 16:53:00,
2013-04-25 12:59:00,54.6,28.2,30.21,NW,325,7.0,7.0,36,0.00,,,0.00,K1FSY wxget,2013-04-25 16:59:00,
2013-04-25 13:04:00,54.8,27.7,30.21,NW,309,5.0,5.0,35,0.00,,,0.00,K1FSY wxget,2013-04-25 17:04:00,
2013-04-25 13:09:00,55.0,28.5,30.21,NNW,340,5.0,5.0,36,0.00,,,0.00,K1FSY wxget,2013-04-25 17:09:00,
2013-04-25 13:14:00,55.6,29.1,30.21,NE,36,3.0,3.0,36,0.00,,,0.00,K1FSY wxget,2013-04-25 17:14:00,
2013-04-25 13:19:00,55.6,29.1,30.20,NE,44,4.0,4.0,36,0.00,,,0.00,K1FSY wxget,2013-04-25 17:19:00,
2013-04-25 13:24:00,56.5,29.2,30.20,NW,317,2.0,3.0,35,0.00,,,0.00,K1FSY wxget,2013-04-25 17:24:00,
2013-04-25 13:29:00,57.2,29.8,30.20,NW,325,4.0,4.0,35,0.00,,,0.00,K1FSY wxget,2013-04-25 17:29:00,
2013-04-25 13:34:00,56.8,27.3,30.20,NW,305,8.0,8.0,32,0.00,,,0.00,K1FSY wxget,2013-04-25 17:34:00,
2013-04-25 13:39:00,56.8,28.7,30.20,WNW,286,10.0,10.0,34,0.00,,,0.00,K1FSY wxget,2013-04-25 17:39:00,
2013-04-25 13:44:00,56.0,28.0,30.20,NNW,331,2.0,3.0,34,0.00,,,0.00,K1FSY wxget,2013-04-25 17:44:00,
2013-04-25 13:49:00,56.5,27.7,30.20,NW,311,2.0,3.0,33,0.00,,,0.00,K1FSY wxget,2013-04-25 17:49:00,
2013-04-25 13:54:00,57.0,29.6,30.20,NW,315,4.0,4.0,35,0.00,,,0.00,K1FSY wxget,2013-04-25 17:54:00,
2013-04-25 13:59:00,56.7,27.9,30.20,NW,315,5.0,5.0,33,0.00,,,0.00,K1FSY wxget,2013-04-25 17:59:00,
2013-04-25 14:04:00,57.0,28.2,30.20,NNW,340,3.0,3.0,33,0.00,,,0.00,K1FSY wxget,2013-04-25 18:04:00,
2013-04-25 14:09:00,57.2,27.6,30.20,NW,320,8.0,8.0,32,0.00,,,0.00,K1FSY wxget,2013-04-25 18:09:00,
2013-04-25 14:14:00,57.7,27.3,30.20,NNW,330,5.0,5.0,31,0.00,,,0.00,K1FSY wxget,2013-04-25 18:14:00,
2013-04-25 14:19:00,57.3,26.1,30.20,NW,320,4.0,4.0,30,0.00,,,0.00,K1FSY wxget,2013-04-25 18:19:00,
2013-04-25 14:24:00,57.1,26.8,30.20,NW,319,7.0,7.0,31,0.00,,,0.00,K1FSY wxget,2013-04-25 18:24:00,
2013-04-25 14:29:00,57.6,26.4,30.20,WSW,256,4.0,4.0,30,0.00,,,0.00,K1FSY wxget,2013-04-25 18:29:00,
2013-04-25 14:34:00,58.1,27.6,30.20,NW,325,11.0,11.0,31,0.00,,,0.00,K1FSY wxget,2013-04-25 18:34:00,
2013-04-25 14:39:00,58.2,30.0,30.19,NW,313,7.0,7.0,34,0.00,,,0.00,K1FSY wxget,2013-04-25 18:39:00,
2013-04-25 14:44:00,58.3,26.2,30.19,West,260,2.0,3.0,29,0.00,,,0.00,K1FSY wxget,2013-04-25 18:44:00,
2013-04-25 14:49:00,58.7,27.4,30.20,NW,309,6.0,6.0,30,0.00,,,0.00,K1FSY wxget,2013-04-25 18:49:00,
2013-04-25 14:54:00,58.3,27.0,30.20,NNW,338,4.0,4.0,30,0.00,,,0.00,K1FSY wxget,2013-04-25 18:54:00,
2013-04-25 15:00:00,58.3,26.2,30.20,NNW,328,5.0,5.0,29,0.00,,,0.00,K1FSY wxget,2013-04-25 19:00:00,
2013-04-25 15:05:00,58.4,24.6,30.20,WNW,302,4.0,4.0,27,0.00,,,0.00,K1FSY wxget,2013-04-25 19:05:00,
2013-04-25 15:10:00,58.4,25.4,30.19,North,351,4.0,4.0,28,0.00,,,0.00,K1FSY wxget,2013-04-25 19:10:00,
2013-04-25 15:15:00,59.0,25.9,30.19,West,266,1.0,3.0,28,0.00,,,0.00,K1FSY wxget,2013-04-25 19:15:00,
2013-04-25 15:20:00,59.3,27.1,30.19,NNW,335,7.0,7.0,29,0.00,,,0.00,K1FSY wxget,2013-04-25 19:20:00,
2013-04-25 15:25:00,59.5,28.0,30.19,ENE,65,5.0,5.0,30,0.00,,,0.00,K1FSY wxget,2013-04-25 19:25:00,
2013-04-25 15:30:00,59.7,26.5,30.19,NW,322,5.0,5.0,28,0.00,,,0.00,K1FSY wxget,2013-04-25 19:30:00,
2013-04-25 15:35:00,59.3,25.3,30.20,WNW,293,5.0,5.0,27,0.00,,,0.00,K1FSY wxget,2013-04-25 19:35:00,
2013-04-25 15:40:00,59.1,26.0,30.19,WNW,302,9.0,9.0,28,0.00,,,0.00,K1FSY wxget,2013-04-25 19:40:00,
2013-04-25 15:45:00,59.6,24.7,30.20,NNE,18,4.0,4.0,26,0.00,,,0.00,K1FSY wxget,2013-04-25 19:45:00,
2013-04-25 15:50:00,59.4,25.4,30.20,NNW,338,8.0,8.0,27,0.00,,,0.00,K1FSY wxget,2013-04-25 19:50:00,
2013-04-25 15:55:00,59.3,26.2,30.20,North,6,4.0,4.0,28,0.00,,,0.00,K1FSY wxget,2013-04-25 19:55:00,
2013-04-25 16:00:00,59.2,26.1,30.20,NW,325,4.0,4.0,28,0.00,,,0.00,K1FSY wxget,2013-04-25 20:00:00,
2013-04-25 16:05:00,59.6,26.5,30.20,North,349,3.0,3.0,28,0.00,,,0.00,K1FSY wxget,2013-04-25 20:05:00,
2013-04-25 16:10:00,59.3,25.3,30.20,NNW,338,7.0,7.0,27,0.00,,,0.00,K1FSY wxget,2013-04-25 20:10:00,
2013-04-25 16:15:00,59.5,27.2,30.20,NW,320,4.0,4.0,29,0.00,,,0.00,K1FSY wxget,2013-04-25 20:15:00,
2013-04-25 16:20:00,59.8,25.8,30.20,NW,306,7.0,7.0,27,0.00,,,0.00,K1FSY wxget,2013-04-25 20:20:00,
2013-04-25 16:25:00,59.6,27.3,30.20,WNW,300,7.0,7.0,29,0.00,,,0.00,K1FSY wxget,2013-04-25 20:25:00,
2013-04-25 16:31:00,60.0,27.7,30.20,NW,323,7.0,7.0,29,0.00,,,0.00,K1FSY wxget,2013-04-25 20:31:00,
2013-04-25 16:35:00,59.9,26.7,30.20,NNW,342,3.0,3.0,28,0.00,,,0.00,K1FSY wxget,2013-04-25 20:35:00,
2013-04-25 16:41:00,59.5,26.4,30.20,NNE,26,5.0,5.0,28,0.00,,,0.00,K1FSY wxget,2013-04-25 20:41:00,
2013-04-25 16:46:00,59.7,27.4,30.20,WNW,285,3.0,3.0,29,0.00,,,0.00,K1FSY wxget,2013-04-25 20:46:00,
2013-04-25 16:51:00,60.3,27.9,30.20,NNW,340,7.0,7.0,29,0.00,,,0.00,K1FSY wxget,2013-04-25 20:51:00,
2013-04-25 16:56:00,60.0,27.7,30.20,NW,304,2.0,3.0,29,0.00,,,0.00,K1FSY wxget,2013-04-25 20:56:00,
2013-04-25 17:01:00,59.9,27.6,30.20,WNW,293,3.0,3.0,29,0.00,,,0.00,K1FSY wxget,2013-04-25 21:01:00,
2013-04-25 17:06:00,60.3,27.1,30.21,NNW,338,3.0,3.0,28,0.00,,,0.00,K1FSY wxget,2013-04-25 21:06:00,
2013-04-25 17:11:00,60.2,27.0,30.21,North,357,5.0,5.0,28,0.00,,,0.00,K1FSY wxget,2013-04-25 21:11:00,
2013-04-25 17:16:00,60.2,27.0,30.21,NNW,338,1.0,3.0,28,0.00,,,0.00,K1FSY wxget,2013-04-25 21:16:00,
2013-04-25 17:21:00,60.5,27.2,30.21,NW,322,3.0,3.0,28,0.00,,,0.00,K1FSY wxget,2013-04-25 21:21:00,
2013-04-25 17:26:00,60.4,27.1,30.21,North,349,1.0,3.0,28,0.00,,,0.00,K1FSY wxget,2013-04-25 21:26:00,
2013-04-25 17:31:00,60.2,27.0,30.21,ENE,65,3.0,3.0,28,0.00,,,0.00,K1FSY wxget,2013-04-25 21:31:00,
2013-04-25 17:36:00,59.7,26.5,30.21,ENE,71,0.0,3.0,28,0.00,,,0.00,K1FSY wxget,2013-04-25 21:36:00,
2013-04-25 17:41:00,60.2,27.0,30.21,West,279,2.0,3.0,28,0.00,,,0.00,K1FSY wxget,2013-04-25 21:41:00,
2013-04-25 17:46:00,60.6,27.3,30.21,WNW,302,3.0,3.0,28,0.00,,,0.00,K1FSY wxget,2013-04-25 21:46:00,
2013-04-25 17:51:00,60.3,27.1,30.21,NNW,333,2.0,3.0,28,0.00,,,0.00,K1FSY wxget,2013-04-25 21:51:00,
2013-04-25 17:56:00,60.6,26.4,30.21,NNW,330,4.0,4.0,27,0.00,,,0.00,K1FSY wxget,2013-04-25 21:56:00,
2013-04-25 18:01:00,60.8,26.6,30.21,NNW,328,2.0,3.0,27,0.00,,,0.00,K1FSY wxget,2013-04-25 22:01:00,
2013-04-25 18:06:00,60.4,26.3,30.21,WNW,300,2.0,3.0,27,0.00,,,0.00,K1FSY wxget,2013-04-25 22:06:00,
2013-04-25 18:11:00,60.0,25.9,30.21,East,90,3.0,3.0,27,0.00,,,0.00,K1FSY wxget,2013-04-25 22:11:00,
2013-04-25 18:16:00,59.9,26.7,30.21,NE,44,2.0,3.0,28,0.00,,,0.00,K1FSY wxget,2013-04-25 22:16:00,
2013-04-25 18:21:00,60.2,27.0,30.22,NW,324,1.0,3.0,28,0.00,,,0.00,K1FSY wxget,2013-04-25 22:21:00,
2013-04-25 18:27:00,60.3,27.1,30.22,ENE,61,2.0,3.0,28,0.00,,,0.00,K1FSY wxget,2013-04-25 22:27:00,
2013-04-25 18:32:00,60.2,27.8,30.22,NNW,330,3.0,3.0,29,0.00,,,0.00,K1FSY wxget,2013-04-25 22:32:00,
2013-04-25 18:37:00,60.2,27.0,30.22,North,351,4.0,4.0,28,0.00,,,0.00,K1FSY wxget,2013-04-25 22:37:00,
2013-04-25 18:42:00,60.3,27.9,30.23,North,349,5.0,5.0,29,0.00,,,0.00,K1FSY wxget,2013-04-25 22:42:00,
2013-04-25 18:47:00,60.6,27.3,30.23,WNW,288,1.0,3.0,28,0.00,,,0.00,K1FSY wxget,2013-04-25 22:47:00,
2013-04-25 18:52:00,60.8,27.5,30.23,North,1,2.0,3.0,28,0.00,,,0.00,K1FSY wxget,2013-04-25 22:52:00,
2013-04-25 18:57:00,60.9,27.6,30.23,North,5,3.0,3.0,28,0.00,,,0.00,K1FSY wxget,2013-04-25 22:57:00,
2013-04-25 19:02:00,60.5,28.1,30.23,NNW,347,0.0,3.0,29,0.00,,,0.00,K1FSY wxget,2013-04-25 23:02:00,
2013-04-25 19:07:00,60.1,26.9,30.22,ENE,61,3.0,3.0,28,0.00,,,0.00,K1FSY wxget,2013-04-25 23:07:00,
2013-04-25 19:12:00,59.5,27.2,30.23,North,358,0.0,3.0,29,0.00,,,0.00,K1FSY wxget,2013-04-25 23:12:00,
2013-04-25 19:17:00,59.3,27.9,30.23,NE,51,2.0,3.0,30,0.00,,,0.00,K1FSY wxget,2013-04-25 23:17:00,
2013-04-25 19:22:00,59.2,27.8,30.23,NNW,345,1.0,3.0,30,0.00,,,0.00,K1FSY wxget,2013-04-25 23:22:00,
2013-04-25 19:27:00,59.3,27.9,30.24,NNW,347,0.0,3.0,30,0.00,,,0.00,K1FSY wxget,2013-04-25 23:27:00,
2013-04-25 19:32:00,59.1,27.7,30.24,NE,47,0.0,3.0,30,0.00,,,0.00,K1FSY wxget,2013-04-25 23:32:00,
2013-04-25 19:37:00,58.7,27.4,30.24,North,355,1.0,3.0,30,0.00,,,0.00,K1FSY wxget,2013-04-25 23:37:00,
2013-04-25 19:42:00,58.2,27.7,30.24,NNW,345,0.0,3.0,31,0.00,,,0.00,K1FSY wxget,2013-04-25 23:42:00,
2013-04-25 19:47:00,57.7,28.0,30.24,NE,39,0.0,3.0,32,0.00,,,0.00,K1FSY wxget,2013-04-25 23:47:00,
2013-04-25 19:52:00,57.1,27.5,30.24,NE,39,1.0,3.0,32,0.00,,,0.00,K1FSY wxget,2013-04-25 23:52:00,
2013-04-25 19:57:00,56.8,27.3,30.24,ENE,61,2.0,3.0,32,0.00,,,0.00,K1FSY wxget,2013-04-25 23:57:00,
2013-04-25 20:02:00,56.5,27.7,30.24,ENE,68,1.0,3.0,33,0.00,,,0.00,K1FSY wxget,2013-04-26 00:02:00,
2013-04-25 20:07:00,56.3,27.6,30.24,North,357,1.0,3.0,33,0.00,,,0.00,K1FSY wxget,2013-04-26 00:07:00,
2013-04-25 20:12:00,56.1,28.1,30.25,NE,36,1.0,3.0,34,0.00,,,0.00,K1FSY wxget,2013-04-26 00:12:00,
2013-04-25 20:17:00,55.8,27.9,30.25,NE,36,0.0,3.0,34,0.00,,,0.00,K1FSY wxget,2013-04-26 00:17:00,
2013-04-25 20:22:00,55.5,28.3,30.25,ENE,65,1.0,3.0,35,0.00,,,0.00,K1FSY wxget,2013-04-26 00:22:00,
2013-04-25 20:27:00,55.0,27.9,30.25,East,81,2.0,3.0,35,0.00,,,0.00,K1FSY wxget,2013-04-26 00:27:00,
2013-04-25 20:32:00,54.7,28.3,30.25,ENE,65,1.0,3.0,36,0.00,,,0.00,K1FSY wxget,2013-04-26 00:32:00,
2013-04-25 20:37:00,54.6,28.2,30.26,ENE,65,0.0,3.0,36,0.00,,,0.00,K1FSY wxget,2013-04-26 00:37:00,
2013-04-25 20:43:00,54.5,27.4,30.26,ENE,61,1.0,3.0,35,0.00,,,0.00,K1FSY wxget,2013-04-26 00:43:00,
2013-04-25 20:48:00,54.6,27.5,30.26,NE,53,1.0,3.0,35,0.00,,,0.00,K1FSY wxget,2013-04-26 00:48:00,
2013-04-25 20:53:00,54.4,28.0,30.27,NE,52,1.0,3.0,36,0.00,,,0.00,K1FSY wxget,2013-04-26 00:53:00,
2013-04-25 20:58:00,54.0,28.3,30.27,NE,52,0.0,3.0,37,0.00,,,0.00,K1FSY wxget,2013-04-26 00:58:00,
2013-04-25 21:03:00,53.8,28.1,30.27,NE,45,2.0,3.0,37,0.00,,,0.00,K1FSY wxget,2013-04-26 01:03:00,
2013-04-25 21:08:00,53.7,27.4,30.27,ENE,63,2.0,3.0,36,0.00,,,0.00,K1FSY wxget,2013-04-26 01:08:00,
2013-04-25 21:13:00,53.6,27.3,30.27,NE,46,2.0,3.0,36,0.00,,,0.00,K1FSY wxget,2013-04-26 01:13:00,
2013-04-25 21:18:00,53.5,27.9,30.27,ENE,63,0.0,3.0,37,0.00,,,0.00,K1FSY wxget,2013-04-26 01:18:00,
2013-04-25 21:23:00,53.2,28.3,30.28,ENE,63,0.0,3.0,38,0.00,,,0.00,K1FSY wxget,2013-04-26 01:23:00,
2013-04-25 21:28:00,52.4,28.8,30.28,ENE,63,1.0,3.0,40,0.00,,,0.00,K1FSY wxget,2013-04-26 01:28:00,
2013-04-25 21:33:00,51.6,29.3,30.28,North,349,2.0,3.0,42,0.00,,,0.00,K1FSY wxget,2013-04-26 01:33:00,
2013-04-25 21:38:00,50.8,29.7,30.28,NNW,347,0.0,3.0,44,0.00,,,0.00,K1FSY wxget,2013-04-26 01:38:00,
2013-04-25 21:43:00,50.3,30.3,30.28,North,349,0.0,3.0,46,0.00,,,0.00,K1FSY wxget,2013-04-26 01:43:00,
2013-04-25 21:48:00,49.9,30.0,30.29,North,354,0.0,3.0,46,0.00,,,0.00,K1FSY wxget,2013-04-26 01:48:00,
2013-04-25 21:53:00,49.7,30.3,30.29,ENE,74,1.0,3.0,47,0.00,,,0.00,K1FSY wxget,2013-04-26 01:53:00,
2013-04-25 21:58:00,49.7,29.8,30.29,ENE,68,0.0,3.0,46,0.00,,,0.00,K1FSY wxget,2013-04-26 01:58:00,
2013-04-25 22:03:00,49.7,29.8,30.29,ESE,103,1.0,3.0,46,0.00,,,0.00,K1FSY wxget,2013-04-26 02:03:00,
2013-04-25 22:08:00,49.5,30.1,30.29,SSE,150,1.0,3.0,47,0.00,,,0.00,K1FSY wxget,2013-04-26 02:08:00,
2013-04-25 22:13:00,49.3,28.3,30.29,SSE,150,0.0,3.0,44,0.00,,,0.00,K1FSY wxget,2013-04-26 02:13:00,
2013-04-25 22:18:00,49.6,28.0,30.30,SSE,150,0.0,3.0,43,0.00,,,0.00,K1FSY wxget,2013-04-26 02:18:00,
2013-04-25 22:23:00,49.7,28.7,30.30,SSE,150,0.0,3.0,44,0.00,,,0.00,K1FSY wxget,2013-04-26 02:23:00,
2013-04-25 22:28:00,49.3,28.9,30.30,SSE,150,0.0,3.0,45,0.00,,,0.00,K1FSY wxget,2013-04-26 02:28:00,
2013-04-25 22:33:00,48.9,29.6,30.30,SE,146,0.0,3.0,47,0.00,,,0.00,K1FSY wxget,2013-04-26 02:33:00,
2013-04-25 22:38:00,48.7,29.4,30.30,SE,145,0.0,3.0,47,0.00,,,0.00,K1FSY wxget,2013-04-26 02:38:00,
2013-04-25 22:43:00,48.5,30.2,30.30,SE,145,0.0,3.0,49,0.00,,,0.00,K1FSY wxget,2013-04-26 02:43:00,
2013-04-25 22:48:00,48.3,30.5,30.30,SE,146,1.0,3.0,50,0.00,,,0.00,K1FSY wxget,2013-04-26 02:48:00,
2013-04-25 22:53:00,47.9,30.7,30.30,East,86,0.0,3.0,51,0.00,,,0.00,K1FSY wxget,2013-04-26 02:53:00,
2013-04-25 22:58:00,47.8,29.1,30.30,East,86,0.0,3.0,48,0.00,,,0.00,K1FSY wxget,2013-04-26 02:58:00,
2013-04-25 23:03:00,47.6,31.3,30.30,NNW,340,0.0,3.0,53,0.00,,,0.00,K1FSY wxget,2013-04-26 03:03:00,
2013-04-25 23:08:00,47.1,30.9,30.30,NNW,342,0.0,3.0,53,0.00,,,0.00,K1FSY wxget,2013-04-26 03:08:00,
2013-04-25 23:13:00,46.9,30.7,30.30,NNW,342,0.0,3.0,53,0.00,,,0.00,K1FSY wxget,2013-04-26 03:13:00,
2013-04-25 23:19:00,46.2,31.4,30.31,NW,326,0.0,3.0,56,0.00,,,0.00,K1FSY wxget,2013-04-26 03:19:00,
2013-04-25 23:24:00,45.6,31.7,30.31,NW,326,0.0,3.0,58,0.00,,,0.00,K1FSY wxget,2013-04-26 03:24:00,
2013-04-25 23:29:00,45.1,31.6,30.31,NW,326,0.0,3.0,59,0.00,,,0.00,K1FSY wxget,2013-04-26 03:29:00,
2013-04-25 23:34:00,44.5,31.5,30.32,NW,326,0.0,3.0,60,0.00,,,0.00,K1FSY wxget,2013-04-26 03:34:00,
2013-04-25 23:39:00,44.4,31.8,30.32,NNW,342,1.0,3.0,61,0.00,,,0.00,K1FSY wxget,2013-04-26 03:39:00,
2013-04-25 23:44:00,44.3,31.7,30.32,NNW,347,0.0,3.0,61,0.00,,,0.00,K1FSY wxget,2013-04-26 03:44:00,
2013-04-25 23:49:00,44.2,31.6,30.32,NNW,347,0.0,3.0,61,0.00,,,0.00,K1FSY wxget,2013-04-26 03:49:00,
2013-04-25 23:54:00,44.2,31.6,30.32,NNW,347,0.0,3.0,61,0.00,,,0.00,K1FSY wxget,2013-04-26 03:54:00,
2013-04-25 23:59:00,44.2,31.6,30.32,NNW,347,0.0,3.0,61,0.00,,,0.00,K1FSY wxget,2013-04-26 03:59:00,